URO107P RPLL-EGHH

Flight info

Callsign URO107P
Flight time N/A
Altitude 30000
Route SIRCA2R SIRCA L628 IBOBI/N0479F280 L628 ARESI/K0919F300 L628 PCA G474 ANINA/N0497F300 G474 VEMKO/N0447F240 G474 OMURO/N0503F320 G474 BKK G463 BETNO P646 PTN G472 SAGOD N895 BBS T1 ODUMI/N0501F340 T1 BPL A791 PRA A325 KE B210 NH P757 PG G208 KEBUD L124 SODOK L713 TOVUS/N0475F280 G208 IKA/N0489F360 A647 RUS R661 MIVAK M715 ZAJ R661 TBZ L333 DASIS UL746 GOKPA/N0474F380 UL746 ODERO T86 MATEL T746 ARGES DCT BIVBU DCT ERUKO DCT FAHAZ DCT ARSIN DCT SUBEN T161 AKINI T159 PETIX Z744 COSJE T892 RIDSU Z114 ADENU L608 DENUT L610 KOPUL Q63 IPKUS DCT UMBUR
Aircraft A346/H-SDE2E3FGHIJ3J4J5M1RWXY/LB1D1

Departure

Time 2026-04-30 14:01
Airport Ninoy Aquino International Airport (RPLL)

Arrival

Time N/A
Airport Bournemouth Airport (EGHH)
Time Latitude Longitude Altitude Speed Heading
2026-04-30 12:53 14.51312 121.02196 91 ft 0 kts 146°
2026-04-30 13:30 14.51305 121.02200 91 ft 4 kts 146°
2026-04-30 13:31 14.51205 121.02258 91 ft 8 kts 183°
2026-04-30 13:31 14.51092 121.02081 90 ft 12 kts 240°
2026-04-30 13:32 14.50998 121.01910 90 ft 14 kts 240°
2026-04-30 13:32 14.50895 121.01725 90 ft 15 kts 240°
2026-04-30 13:33 14.50785 121.01528 90 ft 16 kts 240°
2026-04-30 13:33 14.50672 121.01324 90 ft 16 kts 240°
2026-04-30 13:34 14.50614 121.01221 90 ft 16 kts 240°
2026-04-30 13:34 14.50438 121.00904 90 ft 17 kts 240°
2026-04-30 13:35 14.50377 121.00794 90 ft 17 kts 240°
2026-04-30 13:35 14.50268 121.00602 90 ft 14 kts 240°
2026-04-30 13:36 14.50225 121.00523 90 ft 0 kts 242°
2026-04-30 13:38 14.50225 121.00522 90 ft 1 kts 242°
2026-04-30 13:39 14.50149 121.00383 90 ft 16 kts 240°
2026-04-30 13:39 14.50003 121.00123 90 ft 23 kts 240°
2026-04-30 13:40 14.49951 121.00027 90 ft 10 kts 242°
2026-04-30 13:40 14.49944 121.00012 90 ft 0 kts 242°
2026-04-30 13:44 14.49944 121.00011 90 ft 0 kts 242°
2026-04-30 13:44 14.49943 121.00011 90 ft 0 kts 242°
2026-04-30 13:46 14.49943 121.00010 90 ft 0 kts 242°
2026-04-30 13:47 14.49935 120.99996 91 ft 3 kts 239°
2026-04-30 13:47 14.49913 120.99971 91 ft 6 kts 214°
2026-04-30 13:47 14.49897 120.99966 91 ft 0 kts 179°
2026-04-30 13:47 14.49894 120.99966 91 ft 0 kts 179°
2026-04-30 13:48 14.49893 120.99966 91 ft 0 kts 179°
2026-04-30 13:57 14.49891 120.99966 91 ft 2 kts 178°
2026-04-30 13:57 14.49859 120.99977 91 ft 7 kts 154°
2026-04-30 13:58 14.49814 121.00011 91 ft 8 kts 122°
2026-04-30 13:58 14.49834 121.00104 91 ft 0 kts 59°
2026-04-30 14:00 14.49851 121.00134 91 ft 25 kts 60°
2026-04-30 14:00 14.50466 121.01239 91 ft 144 kts 60°
2026-04-30 14:00 14.51043 121.02277 103 ft 185 kts 61°
2026-04-30 14:01 14.51695 121.03425 428 ft 188 kts 61°
2026-04-30 14:01 14.52363 121.04615 757 ft 193 kts 61°
2026-04-30 14:01 14.53034 121.05828 1185 ft 195 kts 61°
2026-04-30 14:01 14.53691 121.07018 1515 ft 192 kts 60°
2026-04-30 14:02 14.54364 121.08228 1752 ft 195 kts 60°
2026-04-30 14:02 14.55051 121.09465 1899 ft 202 kts 60°
2026-04-30 14:02 14.55770 121.10757 2074 ft 210 kts 60°
2026-04-30 14:02 14.56514 121.12083 2231 ft 220 kts 58°
2026-04-30 14:03 14.57663 121.13178 2348 ft 235 kts 23°
2026-04-30 14:03 14.59328 121.13480 2599 ft 249 kts
2026-04-30 14:03 14.61057 121.13451 3034 ft 252 kts
2026-04-30 14:03 14.62816 121.13445 3540 ft 252 kts
2026-04-30 14:04 14.64576 121.13449 4018 ft 253 kts
2026-04-30 14:04 14.66359 121.13457 4505 ft 255 kts
2026-04-30 14:04 14.68115 121.13213 4926 ft 262 kts 335°
2026-04-30 14:04 14.69546 121.12009 5353 ft 270 kts 304°
2026-04-30 14:05 14.70190 121.10181 5771 ft 277 kts 273°
2026-04-30 14:05 14.70153 121.08199 6184 ft 280 kts 269°
2026-04-30 14:05 14.70087 121.06175 6628 ft 282 kts 270°
2026-04-30 14:05 14.70048 121.04163 7040 ft 284 kts 270°
2026-04-30 14:06 14.70024 121.02106 7438 ft 287 kts 271°
2026-04-30 14:06 14.69442 120.98000 8134 ft 297 kts 251°
2026-04-30 14:07 14.67933 120.93851 8537 ft 318 kts 248°
2026-04-30 14:07 14.67131 120.91688 8744 ft 326 kts 249°
2026-04-30 14:07 14.66336 120.89507 9143 ft 328 kts 249°
2026-04-30 14:08 14.64733 120.85059 9962 ft 331 kts 249°
2026-04-30 14:08 14.63927 120.82817 10298 ft 336 kts 249°
2026-04-30 14:08 14.62251 120.78172 10648 ft 355 kts 249°
2026-04-30 14:09 14.61375 120.75745 10817 ft 365 kts 249°
2026-04-30 14:09 14.60482 120.73272 10978 ft 374 kts 249°
2026-04-30 14:09 14.58628 120.68134 11315 ft 392 kts 249°
2026-04-30 14:10 14.57661 120.65456 11514 ft 400 kts 249°
2026-04-30 14:10 14.56692 120.62772 11864 ft 402 kts 249°
2026-04-30 14:10 14.55714 120.60061 12282 ft 403 kts 249°
2026-04-30 14:10 14.54732 120.57341 12695 ft 404 kts 249°
2026-04-30 14:11 14.53756 120.54637 13058 ft 406 kts 249°
2026-04-30 14:11 14.52768 120.51904 13434 ft 408 kts 249°
2026-04-30 14:11 14.51769 120.49143 13819 ft 410 kts 249°
2026-04-30 14:11 14.50774 120.46392 14180 ft 412 kts 249°
2026-04-30 14:12 14.49772 120.43623 14547 ft 413 kts 249°
2026-04-30 14:12 14.48768 120.40848 14893 ft 415 kts 249°
2026-04-30 14:12 14.47756 120.38055 15229 ft 418 kts 249°
2026-04-30 14:12 14.47088 120.36148 15438 ft 420 kts 252°
2026-04-30 14:13 14.46124 120.32279 15888 ft 422 kts 259°
2026-04-30 14:13 14.45733 120.29252 16213 ft 424 kts 264°
2026-04-30 14:13 14.45507 120.26216 16538 ft 426 kts 265°
2026-04-30 14:13 14.45309 120.23172 16862 ft 428 kts 266°
2026-04-30 14:14 14.45108 120.20097 17197 ft 430 kts 265°
2026-04-30 14:14 14.44900 120.17009 17536 ft 431 kts 265°
2026-04-30 14:14 14.44689 120.13964 17851 ft 432 kts 265°
2026-04-30 14:14 14.44471 120.10859 18150 ft 434 kts 265°
2026-04-30 14:15 14.44251 120.07754 18451 ft 436 kts 265°
2026-04-30 14:15 14.44027 120.04604 18746 ft 437 kts 265°
2026-04-30 14:15 14.43807 120.01511 19049 ft 439 kts 265°
2026-04-30 14:15 14.43581 119.98361 19338 ft 440 kts 265°
2026-04-30 14:16 14.43355 119.95213 19617 ft 442 kts 265°
2026-04-30 14:16 14.43126 119.92030 19909 ft 443 kts 265°
2026-04-30 14:16 14.42898 119.88872 20190 ft 444 kts 265°
2026-04-30 14:16 14.42670 119.85709 20454 ft 446 kts 265°
2026-04-30 14:17 14.42437 119.82504 20719 ft 447 kts 265°
2026-04-30 14:17 14.42208 119.79334 20978 ft 449 kts 265°
2026-04-30 14:17 14.41972 119.76102 21243 ft 450 kts 265°
2026-04-30 14:17 14.41738 119.72908 21495 ft 451 kts 265°
2026-04-30 14:18 14.41503 119.69687 21734 ft 453 kts 265°
2026-04-30 14:18 14.41267 119.66447 21970 ft 454 kts 265°
2026-04-30 14:18 14.40789 119.59922 22460 ft 457 kts 265°
2026-04-30 14:19 14.40309 119.53400 22977 ft 458 kts 265°
2026-04-30 14:19 14.40069 119.50140 23230 ft 459 kts 265°
2026-04-30 14:19 14.39823 119.46829 23490 ft 460 kts 265°
2026-04-30 14:20 14.39581 119.43572 23737 ft 461 kts 265°
2026-04-30 14:20 14.39336 119.40279 23976 ft 462 kts 265°
2026-04-30 14:20 14.38842 119.33652 24448 ft 464 kts 264°
2026-04-30 14:21 14.38596 119.30357 24681 ft 465 kts 264°
2026-04-30 14:21 14.38345 119.27001 24914 ft 466 kts 264°
2026-04-30 14:21 14.37847 119.20355 25360 ft 469 kts 264°
2026-04-30 14:22 14.37592 119.16965 25586 ft 469 kts 264°
2026-04-30 14:22 14.37086 119.10260 26026 ft 471 kts 264°
2026-04-30 14:22 14.36832 119.06888 26258 ft 472 kts 264°
2026-04-30 14:23 14.36321 119.00159 26685 ft 474 kts 264°
2026-04-30 14:23 14.35805 118.93378 27068 ft 476 kts 264°
2026-04-30 14:24 14.35282 118.86560 27464 ft 478 kts 264°
2026-04-30 14:24 14.35023 118.83173 27708 ft 478 kts 264°
2026-04-30 14:25 14.34500 118.76378 27919 ft 475 kts 264°
2026-04-30 14:25 14.33977 118.69591 27926 ft 475 kts 264°
2026-04-30 14:26 14.33454 118.62820 27927 ft 475 kts 264°
2026-04-30 14:26 14.33190 118.59415 27928 ft 475 kts 264°
2026-04-30 14:26 14.32665 118.52673 27928 ft 475 kts 264°
2026-04-30 14:27 14.32399 118.49259 27927 ft 475 kts 264°
2026-04-30 14:27 14.32136 118.45901 27928 ft 475 kts 264°
2026-04-30 14:27 14.31869 118.42491 27926 ft 475 kts 264°
2026-04-30 14:28 14.31337 118.35719 27928 ft 475 kts 264°
2026-04-30 14:28 14.31068 118.32313 27927 ft 475 kts 264°
2026-04-30 14:28 14.30802 118.28953 27929 ft 475 kts 264°
2026-04-30 14:28 14.30532 118.25545 27927 ft 475 kts 264°
2026-04-30 14:29 14.29994 118.18771 27928 ft 475 kts 264°
2026-04-30 14:29 14.29554 118.13127 27929 ft 475 kts 264°
2026-04-30 14:30 14.28622 118.01773 27928 ft 477 kts 264°
2026-04-30 14:31 14.28071 117.94984 27926 ft 476 kts 264°
2026-04-30 14:31 14.23519 117.39328 27926 ft 476 kts 264°
2026-04-30 14:31 14.21044 117.09631 27915 ft 476 kts 264°
2026-04-30 14:32 14.20477 117.02804 28343 ft 476 kts 264°
2026-04-30 14:32 14.20195 116.99416 28627 ft 475 kts 264°
2026-04-30 14:32 14.19912 116.96053 28818 ft 476 kts 264°
2026-04-30 14:33 14.19623 116.92632 28968 ft 478 kts 264°
2026-04-30 14:33 14.19038 116.85792 29387 ft 478 kts 264°
2026-04-30 14:33 14.18746 116.82392 29606 ft 478 kts 264°
2026-04-30 14:34 14.18453 116.78991 29799 ft 478 kts 264°
2026-04-30 14:34 14.18160 116.75576 29917 ft 480 kts 264°
2026-04-30 14:34 14.17573 116.68756 29925 ft 480 kts 264°
2026-04-30 14:35 14.16688 116.58482 29930 ft 479 kts 264°
2026-04-30 14:36 14.16101 116.51688 29929 ft 480 kts 264°
2026-04-30 14:36 14.15510 116.44830 29933 ft 480 kts 264°
2026-04-30 14:37 14.14917 116.38020 29938 ft 480 kts 264°
2026-04-30 14:37 14.14315 116.31145 29939 ft 480 kts 263°
2026-04-30 14:38 14.13718 116.24329 29944 ft 479 kts 263°
2026-04-30 14:38 14.13120 116.17526 29942 ft 479 kts 263°
2026-04-30 14:39 14.12518 116.10690 29943 ft 479 kts 263°
2026-04-30 14:39 14.11916 116.03882 29944 ft 478 kts 263°
2026-04-30 14:40 14.11007 115.93639 29946 ft 479 kts 263°
2026-04-30 14:40 14.10402 115.86844 29948 ft 479 kts 263°
2026-04-30 14:41 14.09791 115.80019 29947 ft 478 kts 263°
2026-04-30 14:41 14.09181 115.73233 29947 ft 477 kts 263°
2026-04-30 14:42 14.08567 115.66399 29946 ft 477 kts 263°
2026-04-30 14:42 14.07954 115.59616 29949 ft 477 kts 263°
2026-04-30 14:43 14.07339 115.52819 29948 ft 477 kts 263°
2026-04-30 14:43 14.06723 115.46046 29944 ft 477 kts 263°
2026-04-30 14:44 14.06106 115.39275 29946 ft 478 kts 263°
2026-04-30 14:44 14.05485 115.32488 29941 ft 478 kts 263°
2026-04-30 14:45 14.04857 115.25652 29941 ft 477 kts 263°
2026-04-30 14:45 14.04232 115.18861 29943 ft 476 kts 263°
2026-04-30 14:46 14.03611 115.12122 29940 ft 476 kts 263°
2026-04-30 14:46 14.02984 115.05345 29943 ft 477 kts 263°
2026-04-30 14:47 14.02353 114.98528 29948 ft 477 kts 263°
2026-04-30 14:47 14.01723 114.91756 29944 ft 477 kts 263°
2026-04-30 14:48 14.01087 114.84953 29937 ft 477 kts 263°
2026-04-30 14:48 14.00453 114.78184 29933 ft 477 kts 263°
2026-04-30 14:49 13.99818 114.71416 29927 ft 477 kts 263°
2026-04-30 14:49 13.99178 114.64606 29929 ft 476 kts 263°
2026-04-30 14:50 13.98223 114.54452 29932 ft 476 kts 263°
2026-04-30 14:51 13.97387 114.44286 29928 ft 477 kts 266°
2026-04-30 14:52 13.97394 114.34033 29929 ft 478 kts 269°
2026-04-30 14:52 13.97470 114.23791 29927 ft 479 kts 269°
2026-04-30 14:53 13.97540 114.13535 29928 ft 477 kts 269°
2026-04-30 14:54 13.97624 113.99932 29924 ft 478 kts 269°
2026-04-30 14:55 13.97679 113.89669 29921 ft 478 kts 269°
2026-04-30 14:56 13.97748 113.76025 29926 ft 478 kts 269°
2026-04-30 14:57 13.97796 113.65783 29928 ft 480 kts 269°
2026-04-30 14:58 13.97853 113.52047 29943 ft 480 kts 269°
2026-04-30 14:58 13.97892 113.41762 29947 ft 480 kts 269°
2026-04-30 15:00 13.97945 113.24642 29945 ft 481 kts 269°
2026-04-30 15:01 13.97981 113.10912 29944 ft 481 kts 269°
2026-04-30 15:01 13.98000 113.00569 29944 ft 482 kts 269°
2026-04-30 15:02 13.98010 112.93673 29945 ft 482 kts 269°
2026-04-30 15:03 13.98031 112.76646 29947 ft 469 kts 269°
2026-04-30 15:04 13.98040 112.60026 29947 ft 475 kts 269°
2026-04-30 15:06 13.98038 112.42857 29947 ft 481 kts 269°
2026-04-30 15:07 13.98028 112.29125 29947 ft 481 kts 269°
2026-04-30 15:08 13.98010 112.15344 29947 ft 483 kts 269°
2026-04-30 15:09 13.97977 111.98054 29946 ft 483 kts 269°
2026-04-30 15:10 13.97942 111.84269 29946 ft 483 kts 269°
2026-04-30 15:11 13.97877 111.63620 29944 ft 482 kts 269°
2026-04-30 15:13 13.97805 111.46381 29946 ft 482 kts 269°
2026-04-30 15:14 13.97672 111.22264 29960 ft 482 kts 268°
2026-04-30 15:17 13.97472 110.91289 29965 ft 481 kts 268°
2026-04-30 15:19 13.97263 110.63803 29951 ft 482 kts 268°
2026-04-30 17:39 18.07671 91.61797 31906 ft 459 kts 288°
2026-04-30 17:42 18.19602 91.30746 31898 ft 458 kts 288°
2026-04-30 17:43 18.25530 91.15256 31900 ft 459 kts 288°
2026-04-30 17:44 18.32661 90.96559 31900 ft 460 kts 289°
2026-04-30 17:47 18.43355 90.68410 31882 ft 462 kts 289°
2026-04-30 17:48 18.51677 90.46399 31877 ft 463 kts 289°
2026-04-30 17:50 18.61181 90.21151 31881 ft 466 kts 289°
2026-04-30 17:52 18.68348 90.02040 31876 ft 469 kts 290°
2026-04-30 17:54 18.79082 89.73284 31864 ft 469 kts 290°
2026-04-30 17:56 18.88592 89.47676 31876 ft 470 kts 290°
2026-04-30 17:58 18.95719 89.28402 31881 ft 470 kts 290°
2026-04-30 18:00 19.05205 89.02638 31877 ft 471 kts 290°
2026-04-30 18:01 19.11093 88.86579 31866 ft 470 kts 290°
2026-04-30 18:02 19.18134 88.67300 31863 ft 468 kts 290°
2026-04-30 18:04 19.25421 88.48168 31877 ft 467 kts 291°
2026-04-30 18:06 19.35075 88.22752 31866 ft 466 kts 290°
2026-04-30 18:08 19.43495 88.00475 31858 ft 466 kts 290°
2026-04-30 18:10 19.53074 87.75010 31840 ft 467 kts 290°
2026-04-30 18:11 19.61422 87.52711 31831 ft 468 kts 290°
2026-04-30 18:13 19.67383 87.36732 31828 ft 468 kts 290°
2026-04-30 18:14 19.73361 87.20656 31831 ft 469 kts 290°
2026-04-30 18:15 19.80514 87.01352 31833 ft 470 kts 290°
2026-04-30 18:16 19.85286 86.88429 31835 ft 469 kts 290°
2026-04-30 18:17 19.87658 86.81990 31831 ft 468 kts 290°
2026-04-30 18:18 19.91202 86.72349 31829 ft 468 kts 290°
2026-04-30 18:18 19.93581 86.65887 31827 ft 467 kts 290°
2026-04-30 18:19 19.95932 86.59491 31825 ft 467 kts 290°
2026-04-30 18:19 19.98282 86.53080 31825 ft 467 kts 290°
2026-04-30 18:20 20.00647 86.46623 31820 ft 467 kts 290°
2026-04-30 18:20 20.02982 86.40231 31805 ft 466 kts 290°
2026-04-30 18:21 20.05321 86.33813 31808 ft 466 kts 290°
2026-04-30 18:21 20.07655 86.27410 31799 ft 467 kts 290°
2026-04-30 18:22 20.09997 86.20968 31797 ft 467 kts 290°
2026-04-30 18:22 20.13504 86.11348 31788 ft 464 kts 290°
2026-04-30 18:23 20.15844 86.04942 31793 ft 465 kts 290°
2026-04-30 18:23 20.18177 85.98532 31799 ft 464 kts 291°
2026-04-30 18:24 20.21660 85.88944 31802 ft 464 kts 291°
2026-04-30 18:25 20.23977 85.82557 31802 ft 465 kts 291°
2026-04-30 18:25 20.27792 85.73058 31800 ft 465 kts 293°
2026-04-30 18:26 20.31643 85.63593 31808 ft 466 kts 294°
2026-04-30 18:27 20.35510 85.54064 31813 ft 465 kts 293°
2026-04-30 18:28 20.39335 85.44611 31820 ft 465 kts 294°
2026-04-30 18:28 20.43165 85.35128 31828 ft 466 kts 294°
2026-04-30 18:29 20.48286 85.22424 31837 ft 467 kts 293°
2026-04-30 18:30 20.53407 85.09686 31822 ft 467 kts 294°
2026-04-30 18:31 20.57227 85.00160 31816 ft 466 kts 294°
2026-04-30 18:32 20.61034 84.90655 31818 ft 465 kts 294°
2026-04-30 18:33 20.64849 84.81113 31821 ft 465 kts 294°
2026-04-30 18:33 20.68642 84.71602 31823 ft 465 kts 294°
2026-04-30 18:34 20.72429 84.62090 31821 ft 464 kts 294°
2026-04-30 18:35 20.74945 84.55763 31812 ft 463 kts 294°
2026-04-30 18:35 20.77455 84.49445 31809 ft 463 kts 294°
2026-04-30 18:36 20.81207 84.39977 31802 ft 462 kts 295°
2026-04-30 18:37 20.84970 84.30469 31804 ft 462 kts 294°
2026-04-30 18:37 20.87454 84.24179 31800 ft 462 kts 294°
2026-04-30 18:38 20.89950 84.17847 31797 ft 461 kts 295°
2026-04-30 18:38 20.92428 84.11556 31781 ft 460 kts 295°
2026-04-30 18:39 20.94916 84.05234 31794 ft 461 kts 295°
2026-04-30 18:39 20.97387 83.98946 31791 ft 460 kts 295°
2026-04-30 18:40 20.99863 83.92632 31801 ft 458 kts 295°
2026-04-30 18:40 21.02323 83.86343 31796 ft 458 kts 295°
2026-04-30 18:41 21.04760 83.80113 31797 ft 456 kts 295°
2026-04-30 18:41 21.07214 83.73854 31796 ft 457 kts 295°
2026-04-30 18:42 21.09666 83.67596 31790 ft 455 kts 295°
2026-04-30 18:42 21.13331 83.58216 31783 ft 455 kts 295°
2026-04-30 18:45 21.26612 83.24029 31805 ft 450 kts 296°
2026-04-30 18:46 21.29010 83.17837 31812 ft 450 kts 296°
2026-04-30 18:46 21.31403 83.11648 31807 ft 450 kts 296°
2026-04-30 18:47 21.33791 83.05461 31808 ft 449 kts 296°
2026-04-30 18:47 21.36172 82.99278 31809 ft 448 kts 296°
2026-04-30 18:48 21.38550 82.93099 31818 ft 448 kts 296°
2026-04-30 18:48 21.40922 82.86929 31826 ft 449 kts 296°
2026-04-30 18:49 21.43286 82.80761 31831 ft 449 kts 297°
2026-04-30 18:49 21.45658 82.74564 31836 ft 448 kts 296°
2026-04-30 18:50 21.48008 82.68362 31840 ft 449 kts 295°
2026-04-30 18:50 21.50004 82.62015 31843 ft 451 kts 292°
2026-04-30 18:51 21.51888 82.55611 31844 ft 451 kts 292°
2026-04-30 18:51 21.53767 82.49195 31844 ft 451 kts 292°
2026-04-30 18:52 21.55638 82.42803 31843 ft 450 kts 292°
2026-04-30 18:52 21.57521 82.36354 31838 ft 452 kts 292°
2026-04-30 18:53 21.59386 82.29954 31828 ft 451 kts 292°
2026-04-30 18:53 21.61252 82.23540 31818 ft 450 kts 291°
2026-04-30 18:54 21.63116 82.17111 31811 ft 451 kts 292°
2026-04-30 18:54 21.64978 82.10695 31815 ft 450 kts 291°
2026-04-30 18:55 21.66835 82.04266 31817 ft 451 kts 292°
2026-04-30 18:55 21.69612 81.94677 31819 ft 449 kts 292°
2026-04-30 18:56 21.72390 81.85059 31823 ft 449 kts 292°
2026-04-30 18:57 21.75146 81.75466 31826 ft 450 kts 292°
2026-04-30 18:57 21.76985 81.69055 31828 ft 450 kts 292°
2026-04-30 18:58 21.80043 81.59596 31837 ft 447 kts 296°
2026-04-30 18:59 21.83440 81.50235 31846 ft 447 kts 296°
2026-04-30 19:00 21.87940 81.37805 31849 ft 448 kts 296°
2026-04-30 19:01 21.92446 81.25301 31853 ft 447 kts 296°
2026-04-30 19:02 21.95800 81.15977 31870 ft 447 kts 296°
2026-04-30 19:03 22.00275 81.03504 31910 ft 447 kts 295°
2026-04-30 19:04 22.04736 80.91033 31935 ft 446 kts 296°
2026-04-30 19:05 22.09187 80.78555 31934 ft 447 kts 296°
2026-04-30 19:06 22.13629 80.66071 31928 ft 447 kts 295°
2026-04-30 19:06 22.16959 80.56674 31929 ft 447 kts 295°
2026-04-30 19:07 22.20283 80.47266 31918 ft 446 kts 296°
2026-04-30 19:08 22.24695 80.34818 31915 ft 447 kts 295°
2026-04-30 19:09 22.28031 80.25394 31911 ft 447 kts 295°
2026-04-30 19:09 22.30238 80.19135 31907 ft 447 kts 295°
2026-04-30 19:10 22.34650 80.06594 31886 ft 447 kts 295°
2026-04-30 19:11 22.37955 79.97173 31872 ft 448 kts 295°
2026-04-30 19:12 22.40151 79.90904 31873 ft 447 kts 295°
2026-04-30 19:12 22.42354 79.84598 31876 ft 448 kts 295°
2026-04-30 19:13 22.46727 79.72067 31888 ft 448 kts 295°
2026-04-30 19:14 22.48919 79.65769 31893 ft 448 kts 295°
2026-04-30 19:14 22.51099 79.59493 31890 ft 448 kts 295°
2026-04-30 19:15 22.53292 79.53161 31890 ft 447 kts 295°
2026-04-30 19:15 22.56551 79.43745 31890 ft 447 kts 295°
2026-04-30 19:16 22.58758 79.37448 31896 ft 448 kts 295°
2026-04-30 19:17 22.62062 79.28027 31901 ft 448 kts 295°
2026-04-30 19:17 22.65359 79.18574 31898 ft 449 kts 295°
2026-04-30 19:18 22.68651 79.09113 31893 ft 448 kts 295°
2026-04-30 19:19 22.70836 79.02814 31890 ft 448 kts 294°
2026-04-30 19:19 22.74131 78.93310 31882 ft 449 kts 295°
2026-04-30 19:20 22.76320 78.86981 31868 ft 449 kts 295°
2026-04-30 19:21 22.79582 78.77530 31857 ft 449 kts 295°
2026-04-30 19:22 22.83939 78.64877 31847 ft 449 kts 294°
2026-04-30 19:23 22.90457 78.45875 31845 ft 449 kts 294°
2026-04-30 19:24 22.93706 78.36368 31846 ft 449 kts 294°
2026-04-30 19:25 22.99119 78.20502 31851 ft 449 kts 294°
2026-04-30 19:26 23.03416 78.07848 31854 ft 448 kts 294°
2026-04-30 19:27 23.06646 77.98316 31858 ft 449 kts 294°
2026-04-30 19:28 23.09879 77.88755 31861 ft 451 kts 293°
2026-04-30 19:29 23.14172 77.76020 31872 ft 450 kts 294°
2026-04-30 19:30 23.18445 77.63305 31880 ft 448 kts 293°
2026-04-30 19:31 23.22706 77.50579 31887 ft 449 kts 294°
2026-04-30 19:31 23.25898 77.41003 31877 ft 449 kts 293°
2026-04-30 19:32 23.28027 77.34620 31877 ft 449 kts 293°
2026-04-30 19:32 23.30033 77.28225 31879 ft 450 kts 291°
2026-04-30 19:33 23.31958 77.21785 31876 ft 450 kts 291°
2026-04-30 19:33 23.33903 77.15278 31877 ft 450 kts 291°
2026-04-30 19:34 23.35838 77.08813 31884 ft 450 kts 291°
2026-04-30 19:35 23.38728 76.99147 31891 ft 449 kts 291°
2026-04-30 19:35 23.40657 76.92682 31891 ft 449 kts 291°
2026-04-30 19:36 23.42586 76.86209 31889 ft 450 kts 291°
2026-04-30 19:36 23.45465 76.76526 31885 ft 450 kts 291°
2026-04-30 19:37 23.47392 76.70031 31883 ft 450 kts 291°
2026-04-30 19:37 23.49301 76.63591 31880 ft 450 kts 291°
2026-04-30 19:38 23.51222 76.57101 31872 ft 451 kts 291°
2026-04-30 19:38 23.53142 76.50594 31869 ft 450 kts 291°
2026-04-30 19:39 23.55052 76.44112 31865 ft 450 kts 291°
2026-04-30 19:39 23.56950 76.37667 31863 ft 450 kts 290°
2026-04-30 19:40 23.58860 76.31158 31862 ft 450 kts 290°
2026-04-30 19:40 23.60760 76.24673 31859 ft 451 kts 290°
2026-04-30 19:41 23.62665 76.18165 31857 ft 451 kts 290°
2026-04-30 19:41 23.64572 76.11627 31860 ft 451 kts 290°
2026-04-30 19:42 23.66457 76.05151 31865 ft 452 kts 290°
2026-04-30 19:42 23.68358 75.98623 31870 ft 452 kts 290°
2026-04-30 19:43 23.70260 75.92088 31872 ft 452 kts 290°
2026-04-30 19:44 23.73093 75.82298 31866 ft 451 kts 290°
2026-04-30 19:44 23.74972 75.75778 31862 ft 451 kts 290°
2026-04-30 19:45 23.76851 75.69247 31864 ft 451 kts 290°
2026-04-30 19:45 23.78720 75.62732 31870 ft 451 kts 290°
2026-04-30 19:46 23.80589 75.56209 31875 ft 451 kts 290°
2026-04-30 19:46 23.82454 75.49689 31868 ft 450 kts 290°
2026-04-30 19:47 23.84322 75.43149 31868 ft 451 kts 290°
2026-04-30 19:47 23.86177 75.36644 31870 ft 451 kts 290°
2026-04-30 19:48 23.88037 75.30100 31864 ft 452 kts 289°
2026-04-30 19:48 23.89892 75.23570 31859 ft 452 kts 289°
2026-04-30 19:49 23.91750 75.17017 31858 ft 452 kts 289°
2026-04-30 19:49 23.94532 75.07181 31857 ft 451 kts 289°
2026-04-30 19:50 23.96374 75.00651 31856 ft 451 kts 289°
2026-04-30 19:50 23.98209 74.94134 31851 ft 450 kts 289°
2026-04-30 19:51 24.00044 74.87587 31850 ft 450 kts 289°
2026-04-30 19:51 24.01881 74.81037 31848 ft 451 kts 289°
2026-04-30 19:52 24.03716 74.74477 31850 ft 452 kts 289°
2026-04-30 19:52 24.05688 74.68000 31845 ft 452 kts 290°
2026-04-30 19:53 24.07727 74.61478 31840 ft 453 kts 290°
2026-04-30 19:53 24.09742 74.54974 31827 ft 453 kts 290°
2026-04-30 19:54 24.11754 74.48432 31818 ft 453 kts 290°
2026-04-30 19:54 24.13757 74.41906 31814 ft 453 kts 290°
2026-04-30 19:55 24.15748 74.35400 31817 ft 453 kts 290°
2026-04-30 19:55 24.17741 74.28873 31820 ft 453 kts 290°
2026-04-30 19:56 24.19739 74.22310 31818 ft 454 kts 290°
2026-04-30 19:56 24.21729 74.15773 31816 ft 454 kts 290°
2026-04-30 19:57 24.23778 74.09214 31811 ft 453 kts 290°
2026-04-30 19:57 24.25824 74.02700 31802 ft 453 kts 290°
2026-04-30 19:58 24.27860 73.96190 31794 ft 454 kts 290°
2026-04-30 19:58 24.29904 73.89625 31802 ft 454 kts 290°
2026-04-30 19:59 24.31926 73.83118 31809 ft 454 kts 290°
2026-04-30 20:00 24.34973 73.73283 31820 ft 454 kts 290°
2026-04-30 20:00 24.36994 73.66747 31824 ft 454 kts 290°
2026-04-30 20:01 24.40035 73.56897 31838 ft 455 kts 290°
2026-04-30 20:01 24.42055 73.50336 31846 ft 455 kts 290°
2026-04-30 20:02 24.45078 73.40491 31842 ft 454 kts 290°
2026-04-30 20:03 24.48084 73.30680 31843 ft 454 kts 289°
2026-04-30 20:03 24.50096 73.24099 31842 ft 454 kts 289°
2026-04-30 20:04 24.52102 73.17525 31832 ft 454 kts 289°
2026-04-30 20:05 24.55099 73.07687 31822 ft 454 kts 289°
2026-04-30 20:05 24.58091 72.97834 31806 ft 455 kts 289°
2026-04-30 20:06 24.60077 72.91282 31796 ft 455 kts 289°
2026-04-30 20:06 24.62068 72.84705 31785 ft 455 kts 289°
2026-04-30 20:07 24.64055 72.78123 31781 ft 454 kts 289°
2026-04-30 20:08 24.67032 72.68246 31775 ft 454 kts 289°
2026-04-30 20:08 24.69015 72.61651 31774 ft 454 kts 289°
2026-04-30 20:09 24.70991 72.55068 31770 ft 454 kts 289°
2026-04-30 20:09 24.73946 72.45203 31763 ft 455 kts 289°
2026-04-30 20:10 24.76908 72.35283 31756 ft 454 kts 289°
2026-04-30 20:11 24.79847 72.25416 31748 ft 455 kts 288°
2026-04-30 20:11 24.81813 72.18803 31741 ft 455 kts 288°
2026-04-30 20:12 24.84759 72.08868 31730 ft 454 kts 288°
2026-04-30 20:13 24.86710 72.02273 31724 ft 454 kts 288°
2026-04-30 20:13 24.88662 71.95667 31718 ft 453 kts 288°
2026-04-30 20:14 24.90594 71.89113 31715 ft 454 kts 288°
2026-04-30 20:14 24.92537 71.82512 31709 ft 453 kts 288°
2026-04-30 20:15 24.94485 71.75884 31704 ft 454 kts 288°
2026-04-30 20:15 24.96425 71.69263 31704 ft 455 kts 288°
2026-04-30 20:16 24.98358 71.62656 31701 ft 455 kts 288°
2026-04-30 20:16 25.00301 71.56008 31696 ft 455 kts 288°
2026-04-30 20:17 25.02235 71.49374 31699 ft 456 kts 288°
2026-04-30 20:17 25.04170 71.42725 31701 ft 456 kts 288°
2026-04-30 20:18 25.06103 71.36070 31705 ft 456 kts 288°
2026-04-30 20:18 25.08031 71.29417 31711 ft 457 kts 287°
2026-04-30 20:19 25.09960 71.22755 31711 ft 456 kts 287°
2026-04-30 20:19 25.11874 71.16124 31708 ft 456 kts 287°
2026-04-30 20:20 25.13795 71.09460 31709 ft 456 kts 287°
2026-04-30 20:20 25.15710 71.02799 31711 ft 456 kts 287°
2026-04-30 20:21 25.17633 70.96098 31713 ft 457 kts 287°
2026-04-30 20:21 25.19532 70.89459 31713 ft 456 kts 287°
2026-04-30 20:22 25.21440 70.82773 31709 ft 457 kts 287°
2026-04-30 20:22 25.23366 70.76117 31701 ft 457 kts 288°
2026-04-30 20:23 25.25343 70.69424 31697 ft 458 kts 288°
2026-04-30 20:23 25.27298 70.62772 31697 ft 458 kts 288°
2026-04-30 20:24 25.29260 70.56066 31696 ft 458 kts 288°
2026-04-30 20:24 25.31203 70.49403 31695 ft 458 kts 287°
2026-04-30 20:25 25.34129 70.39336 31692 ft 457 kts 287°
2026-04-30 20:26 25.37028 70.29331 31689 ft 457 kts 287°
2026-04-30 20:26 25.39926 70.19308 31686 ft 457 kts 287°
2026-04-30 20:27 25.43786 70.05904 31676 ft 457 kts 287°
2026-04-30 20:28 25.47617 69.92531 31676 ft 458 kts 287°
2026-04-30 20:30 25.52910 69.75970 31665 ft 459 kts 293°
2026-04-30 20:31 25.62093 69.57385 31652 ft 459 kts 297°
2026-04-30 20:32 25.69906 69.41996 31648 ft 460 kts 297°
2026-04-30 20:33 25.74591 69.32738 31660 ft 460 kts 297°
2026-04-30 20:34 25.79274 69.23466 31650 ft 460 kts 297°
2026-04-30 20:35 25.83935 69.14220 31647 ft 459 kts 297°
2026-04-30 20:35 25.88589 69.04970 31643 ft 458 kts 297°
2026-04-30 20:36 25.91693 68.98788 31633 ft 458 kts 297°
2026-04-30 20:37 25.96339 68.89515 31625 ft 458 kts 297°
2026-04-30 20:37 25.99437 68.83322 31623 ft 458 kts 297°
2026-04-30 20:38 26.02508 68.77175 31619 ft 458 kts 297°
2026-04-30 20:38 26.05601 68.70976 31619 ft 458 kts 297°
2026-04-30 20:39 26.10228 68.61680 31613 ft 459 kts 296°
2026-04-30 20:40 26.14853 68.52355 31614 ft 459 kts 297°
2026-04-30 20:40 26.17895 68.46119 31613 ft 459 kts 295°
2026-04-30 20:41 26.21575 68.36384 31613 ft 456 kts 287°
2026-04-30 20:41 26.23328 68.29618 31604 ft 455 kts 282°
2026-04-30 20:42 26.24647 68.22740 31602 ft 454 kts 281°
2026-04-30 20:43 26.26558 68.12441 31616 ft 455 kts 281°
2026-04-30 20:43 26.27833 68.05544 31613 ft 456 kts 281°
2026-04-30 20:44 26.29749 67.95152 31614 ft 456 kts 281°
2026-04-30 20:45 26.32282 67.81339 31625 ft 456 kts 280°
2026-04-30 20:45 26.33542 67.74435 31630 ft 455 kts 281°
2026-04-30 20:46 26.36056 67.60610 31651 ft 455 kts 281°
2026-04-30 20:47 26.37922 67.50298 31672 ft 455 kts 281°
2026-04-30 20:48 26.39784 67.39954 31701 ft 454 kts 280°
2026-04-30 20:48 26.41026 67.33030 31725 ft 455 kts 280°
2026-04-30 20:49 26.42262 67.26115 31761 ft 454 kts 280°
2026-04-30 20:50 26.44100 67.15793 31805 ft 454 kts 280°
2026-04-30 20:50 26.45319 67.08901 31827 ft 455 kts 280°
2026-04-30 20:51 26.46544 67.01970 31851 ft 455 kts 280°
2026-04-30 20:51 26.48408 66.91599 31898 ft 455 kts 280°
2026-04-30 20:52 26.49650 66.84714 31928 ft 456 kts 280°
2026-04-30 20:53 26.51504 66.74338 31973 ft 456 kts 280°
2026-04-30 20:53 26.52741 66.67373 31964 ft 456 kts 280°
2026-04-30 20:54 26.54581 66.56988 31911 ft 456 kts 280°
2026-04-30 20:55 26.56407 66.46622 31867 ft 456 kts 280°
2026-04-30 20:55 26.57629 66.39660 31867 ft 457 kts 280°
2026-04-30 20:56 26.59455 66.29218 31881 ft 457 kts 279°
2026-04-30 20:57 26.61270 66.18784 31900 ft 458 kts 279°
2026-04-30 20:57 26.62486 66.11778 31924 ft 458 kts 280°
2026-04-30 20:58 26.64292 66.01336 31929 ft 459 kts 279°
2026-04-30 20:58 26.65497 65.94334 31932 ft 459 kts 279°
2026-04-30 20:59 26.67294 65.83845 31908 ft 458 kts 279°
2026-04-30 21:00 26.69679 65.69871 31897 ft 457 kts 279°
2026-04-30 21:01 26.71450 65.59431 31902 ft 457 kts 279°
2026-04-30 21:02 26.73214 65.48988 31928 ft 457 kts 279°
2026-04-30 21:02 26.74388 65.42004 31956 ft 456 kts 279°
2026-04-30 21:03 26.75555 65.35040 32011 ft 455 kts 279°
2026-04-30 21:03 26.76711 65.28130 32061 ft 454 kts 279°
2026-04-30 21:04 26.77869 65.21178 32100 ft 454 kts 279°
2026-04-30 21:04 26.79586 65.10828 32062 ft 453 kts 279°
2026-04-30 21:05 26.80731 65.03902 32031 ft 452 kts 279°
2026-04-30 21:05 26.81871 64.96983 32004 ft 452 kts 279°
2026-04-30 21:06 26.83008 64.90063 32010 ft 452 kts 279°
2026-04-30 21:06 26.84141 64.83139 32025 ft 453 kts 278°
2026-04-30 21:07 26.85263 64.76259 32033 ft 453 kts 279°
2026-04-30 21:07 26.86390 64.69330 32033 ft 454 kts 279°
2026-04-30 21:08 26.87516 64.62378 32034 ft 453 kts 279°
2026-04-30 21:08 26.88637 64.55444 32032 ft 453 kts 279°
2026-04-30 21:09 26.89756 64.48498 32030 ft 453 kts 278°
2026-04-30 21:09 26.90871 64.41538 32022 ft 453 kts 279°
2026-04-30 21:10 26.91974 64.34612 32011 ft 454 kts 278°
2026-04-30 21:10 26.93076 64.27683 32001 ft 454 kts 278°
2026-04-30 21:11 26.94402 64.20750 31989 ft 456 kts 282°
2026-04-30 21:11 26.96279 64.13995 31982 ft 458 kts 287°
2026-04-30 21:12 26.98716 64.07408 31977 ft 460 kts 292°
2026-04-30 21:12 27.01710 64.01013 31975 ft 461 kts 296°
2026-04-30 21:13 27.04830 63.94799 31975 ft 460 kts 296°
2026-04-30 21:13 27.07970 63.88557 31976 ft 459 kts 296°
2026-04-30 21:14 27.11107 63.82305 31980 ft 459 kts 295°
2026-04-30 21:14 27.14222 63.76086 31989 ft 457 kts 296°
2026-04-30 21:15 27.17341 63.69853 32005 ft 457 kts 296°
2026-04-30 21:15 27.20449 63.63632 32002 ft 456 kts 295°
2026-04-30 21:16 27.23533 63.57447 31987 ft 457 kts 295°
2026-04-30 21:16 27.26630 63.51230 31973 ft 456 kts 295°
2026-04-30 21:17 27.29718 63.45018 31963 ft 456 kts 295°
2026-04-30 21:17 27.32812 63.38785 31960 ft 456 kts 295°
2026-04-30 21:18 27.35897 63.32565 31964 ft 456 kts 295°
2026-04-30 21:18 27.38961 63.26376 31970 ft 455 kts 294°
2026-04-30 21:19 27.42035 63.20158 31959 ft 455 kts 294°
2026-04-30 21:19 27.45114 63.13915 31949 ft 454 kts 295°
2026-04-30 21:20 27.48154 63.07746 31941 ft 454 kts 294°
2026-04-30 21:20 27.51201 63.01549 31936 ft 454 kts 295°
2026-04-30 21:21 27.54268 62.95301 31930 ft 455 kts 294°
2026-04-30 21:22 27.58837 62.85970 31930 ft 454 kts 294°
2026-04-30 21:23 27.64925 62.73537 31934 ft 453 kts 294°
2026-04-30 21:23 27.69471 62.64191 31959 ft 453 kts 294°
2026-04-30 21:24 27.72484 62.57984 31997 ft 452 kts 294°
2026-04-30 21:24 27.75472 62.51816 32023 ft 452 kts 294°
2026-04-30 21:25 27.79981 62.42486 32033 ft 451 kts 294°
2026-04-30 21:26 27.84484 62.33156 32057 ft 451 kts 293°
2026-04-30 21:27 27.88960 62.23855 32082 ft 450 kts 293°
2026-04-30 21:27 27.91931 62.17666 32102 ft 448 kts 293°
2026-04-30 21:28 27.96363 62.08423 32118 ft 446 kts 293°
2026-04-30 21:29 28.00798 61.99149 32115 ft 446 kts 293°
2026-04-30 21:30 28.08129 61.83759 32141 ft 446 kts 293°
2026-04-30 21:31 28.15710 61.68362 32178 ft 452 kts 298°
2026-04-30 21:32 28.21526 61.59846 32170 ft 460 kts 306°
2026-04-30 21:32 28.26066 61.54716 32139 ft 465 kts 311°
2026-04-30 21:33 28.33544 61.47625 32119 ft 468 kts 314°
2026-04-30 21:34 28.38573 61.42929 32109 ft 467 kts 314°
2026-04-30 21:34 28.46087 61.35894 32118 ft 468 kts 314°
2026-04-30 21:35 28.51113 61.31180 32138 ft 467 kts 313°
2026-04-30 21:35 28.56113 61.26482 32162 ft 467 kts 313°
2026-04-30 21:36 28.61125 61.21768 32180 ft 467 kts 313°
2026-04-30 21:37 28.71119 61.12345 32193 ft 466 kts 313°
2026-04-30 21:37 28.76113 61.07628 32204 ft 466 kts 313°
2026-04-30 21:38 28.81095 61.02914 32198 ft 468 kts 313°
2026-04-30 21:38 28.86106 60.98165 32205 ft 468 kts 313°
2026-04-30 21:39 28.91118 60.93404 32197 ft 469 kts 313°
2026-04-30 21:39 28.96137 60.88638 32181 ft 469 kts 312°
2026-04-30 21:40 29.01272 60.84056 32187 ft 474 kts 315°
2026-04-30 21:40 29.06610 60.79610 32170 ft 474 kts 316°
2026-04-30 21:41 29.11953 60.75162 32163 ft 473 kts 316°
2026-04-30 21:41 29.17266 60.70719 32149 ft 473 kts 315°
2026-04-30 21:42 29.22544 60.66296 32138 ft 471 kts 315°
2026-04-30 21:42 29.27838 60.61851 32129 ft 470 kts 315°
2026-04-30 21:43 29.33113 60.57421 32117 ft 470 kts 315°
2026-04-30 21:43 29.38399 60.53005 32120 ft 470 kts 316°
2026-04-30 21:44 29.43675 60.48597 32119 ft 469 kts 315°
2026-04-30 21:44 29.48949 60.44168 32117 ft 470 kts 315°
2026-04-30 21:45 29.54195 60.39751 32115 ft 468 kts 315°
2026-04-30 21:45 29.59445 60.35329 32115 ft 468 kts 315°
2026-04-30 21:46 29.64546 60.30786 32109 ft 464 kts 313°
2026-04-30 21:46 29.69594 60.26156 32104 ft 464 kts 312°
2026-04-30 21:47 29.74653 60.21503 32108 ft 464 kts 312°
2026-04-30 21:47 29.79676 60.16874 32107 ft 463 kts 312°
2026-04-30 21:48 29.84676 60.12260 32101 ft 462 kts 312°
2026-04-30 21:48 29.89694 60.07624 32098 ft 461 kts 312°
2026-04-30 21:49 29.94660 60.03025 32092 ft 459 kts 312°
2026-04-30 21:49 29.99644 59.98399 32092 ft 459 kts 312°
2026-04-30 21:50 30.04617 59.93768 32064 ft 459 kts 311°
2026-04-30 21:50 30.09280 59.88835 32034 ft 452 kts 306°
2026-04-30 21:51 30.13473 59.83478 32013 ft 446 kts 301°
2026-04-30 21:51 30.17169 59.77785 31988 ft 443 kts 297°
2026-04-30 21:52 30.20660 59.71985 31965 ft 442 kts 297°
2026-04-30 21:52 30.24159 59.66147 31945 ft 441 kts 297°
2026-04-30 21:53 30.27645 59.60318 31933 ft 441 kts 296°
2026-04-30 21:53 30.31120 59.54504 31917 ft 441 kts 297°
2026-04-30 21:54 30.34598 59.48677 31907 ft 442 kts 296°
2026-04-30 21:54 30.38096 59.42806 31904 ft 442 kts 296°
2026-04-30 21:55 30.41559 59.36982 31892 ft 442 kts 296°
2026-04-30 21:55 30.45058 59.31094 31867 ft 443 kts 296°
2026-04-30 21:56 30.48530 59.25243 31852 ft 442 kts 296°
2026-04-30 21:56 30.52005 59.19373 31836 ft 442 kts 296°
2026-04-30 21:57 30.55477 59.13501 31824 ft 442 kts 296°
2026-04-30 21:57 30.58959 59.07604 31811 ft 443 kts 296°
2026-04-30 21:58 30.62439 59.01699 31800 ft 443 kts 296°
2026-04-30 21:58 30.65891 58.95829 31796 ft 443 kts 296°
2026-04-30 21:59 30.69364 58.89914 31790 ft 442 kts 296°
2026-04-30 22:00 30.74555 58.81062 31785 ft 441 kts 296°
2026-04-30 22:00 30.79748 58.72220 31784 ft 443 kts 296°
2026-04-30 22:01 30.83204 58.66302 31780 ft 442 kts 296°
2026-04-30 22:01 30.86640 58.60405 31777 ft 444 kts 296°
2026-04-30 22:02 30.90111 58.54439 31771 ft 443 kts 296°
2026-04-30 22:02 30.93536 58.48535 31764 ft 442 kts 296°
2026-04-30 22:03 30.96998 58.42566 31760 ft 443 kts 296°
2026-04-30 22:03 31.00434 58.36628 31764 ft 444 kts 296°
2026-04-30 22:04 31.03887 58.30651 31750 ft 444 kts 295°
2026-04-30 22:05 31.09023 58.21747 31751 ft 442 kts 295°
2026-04-30 22:05 31.12451 58.15795 31762 ft 442 kts 296°
2026-04-30 22:06 31.15882 58.09826 31797 ft 444 kts 295°
2026-04-30 22:06 31.21021 58.00867 31766 ft 444 kts 295°
2026-04-30 22:07 31.24432 57.94910 31772 ft 444 kts 295°
2026-04-30 22:07 31.27873 57.88888 31790 ft 443 kts 295°
2026-04-30 22:08 31.31279 57.82925 31795 ft 443 kts 295°
2026-04-30 22:08 31.34689 57.76942 31812 ft 442 kts 295°
2026-04-30 22:09 31.38099 57.70946 31816 ft 442 kts 295°
2026-04-30 22:09 31.41479 57.64995 31817 ft 441 kts 295°
2026-04-30 22:10 31.44882 57.59000 31831 ft 442 kts 295°
2026-04-30 22:10 31.48274 57.53009 31820 ft 442 kts 295°
2026-04-30 22:11 31.53340 57.44048 31831 ft 442 kts 295°
2026-04-30 22:12 31.56733 57.38031 31845 ft 442 kts 295°
2026-04-30 22:12 31.60116 57.32023 31859 ft 441 kts 294°
2026-04-30 22:13 31.63473 57.26054 31868 ft 440 kts 295°
2026-04-30 22:13 31.66844 57.20045 31884 ft 439 kts 294°
2026-04-30 22:14 31.70185 57.14079 31896 ft 440 kts 294°
2026-04-30 22:14 31.73558 57.08039 31904 ft 439 kts 294°
2026-04-30 22:15 31.76898 57.02051 31916 ft 440 kts 295°
2026-04-30 22:15 31.80269 56.96048 31928 ft 441 kts 295°
2026-04-30 22:16 31.83654 56.90073 31930 ft 442 kts 295°
2026-04-30 22:17 31.90433 56.78028 31962 ft 440 kts 295°
2026-04-30 22:17 31.95467 56.69033 31970 ft 440 kts 295°
2026-04-30 22:18 32.00515 56.60026 31955 ft 441 kts 295°
2026-04-30 22:19 32.05586 56.50987 31987 ft 442 kts 296°
2026-04-30 22:20 32.10656 56.41896 32001 ft 441 kts 295°
2026-04-30 22:20 32.15709 56.32816 32031 ft 441 kts 295°
2026-04-30 22:21 32.19062 56.26777 32036 ft 443 kts 295°
2026-04-30 22:21 32.22429 56.20697 32055 ft 442 kts 295°
2026-04-30 22:22 32.25785 56.14630 32018 ft 442 kts 295°
2026-04-30 22:22 32.29121 56.08591 32060 ft 440 kts 295°
2026-04-30 22:23 32.32462 56.02528 32057 ft 441 kts 295°
2026-04-30 22:23 32.35793 55.96478 32053 ft 442 kts 295°
2026-04-30 22:24 32.39140 55.90389 32049 ft 442 kts 295°
2026-04-30 22:24 32.42494 55.84272 32067 ft 442 kts 295°
2026-04-30 22:25 32.45816 55.78204 32033 ft 441 kts 295°
2026-04-30 22:25 32.49159 55.72089 32035 ft 441 kts 295°
2026-04-30 22:26 32.54134 55.62970 32043 ft 441 kts 295°
2026-04-30 22:27 32.57453 55.56874 32040 ft 441 kts 295°
2026-04-30 22:27 32.62435 55.47693 32047 ft 441 kts 295°
2026-04-30 22:28 32.67410 55.38509 32043 ft 442 kts 296°
2026-04-30 22:29 32.74071 55.26221 32044 ft 442 kts 296°
2026-04-30 22:31 32.85594 55.04777 32032 ft 439 kts 295°
2026-04-30 22:32 32.94130 54.89614 32044 ft 442 kts 298°
2026-04-30 22:33 33.02880 54.74575 32030 ft 442 kts 298°
2026-04-30 22:35 33.11609 54.59482 32020 ft 444 kts 297°
2026-04-30 22:36 33.20349 54.44302 32007 ft 445 kts 298°
2026-04-30 22:37 33.27315 54.32154 32007 ft 445 kts 297°
2026-04-30 22:38 33.34322 54.19891 32024 ft 445 kts 297°
2026-04-30 22:39 33.39542 54.10730 32039 ft 446 kts 297°
2026-04-30 22:40 33.50073 53.92381 32027 ft 452 kts 301°
2026-04-30 22:41 33.60987 53.78618 32046 ft 461 kts 310°
2026-04-30 22:43 33.75250 53.63034 32037 ft 463 kts 310°
2026-04-30 22:44 33.84752 53.52607 32035 ft 462 kts 310°
2026-04-30 22:45 33.99046 53.36850 32023 ft 466 kts 310°
2026-04-30 22:47 34.13275 53.21089 32026 ft 464 kts 310°
2026-04-30 22:48 34.22760 53.10543 32027 ft 464 kts 310°
2026-04-30 22:49 34.37020 52.94621 32026 ft 466 kts 310°
2026-04-30 22:51 34.51269 52.78632 32047 ft 466 kts 311°
2026-04-30 22:52 34.58378 52.70625 32050 ft 467 kts 311°
2026-04-30 22:53 34.67902 52.59864 32042 ft 467 kts 311°
2026-04-30 22:53 34.75026 52.51781 32026 ft 469 kts 311°
2026-04-30 22:55 34.86685 52.38103 32004 ft 464 kts 307°
2026-04-30 22:56 34.94266 52.25610 32056 ft 456 kts 296°
2026-04-30 22:57 35.01758 52.08673 32010 ft 454 kts 294°
2026-04-30 22:58 35.07709 51.95096 32035 ft 456 kts 294°
2026-04-30 22:59 35.16617 51.74606 32042 ft 456 kts 294°